Time,TemperatureF,DewpointF,PressureIn,WindDirection,WindDirectionDegrees,WindSpeedMPH,WindSpeedGustMPH,Humidity,HourlyPrecipIn,Conditions,Clouds,dailyrainin,SoftwareType,DateUTC
2013-04-11 00:02:00,31.0,29.0,28.37,NNW,340,0.0,0.0,92,0.00,,,0.08,,2013-04-11 05:02:00,
2013-04-11 00:13:00,31.0,29.0,28.37,NNW,340,0.0,0.0,92,0.00,,,0.08,,2013-04-11 05:13:00,
2013-04-11 00:22:00,31.0,29.0,28.37,NNW,340,0.0,0.0,92,0.00,,,0.08,,2013-04-11 05:22:00,
2013-04-11 00:32:00,31.0,29.0,28.37,NNW,340,0.0,0.0,91,0.00,,,0.08,,2013-04-11 05:32:00,
2013-04-11 00:42:00,31.0,29.0,28.37,NNW,340,0.0,0.0,91,0.00,,,0.08,,2013-04-11 05:42:00,
2013-04-11 00:52:00,31.0,29.0,28.37,NNW,340,0.0,0.0,91,0.00,,,0.04,,2013-04-11 05:52:00,
2013-04-11 01:12:00,31.0,29.0,28.37,NNW,340,0.0,0.0,91,0.00,,,0.04,,2013-04-11 06:12:00,
2013-04-11 01:22:00,31.0,28.0,28.37,NNW,340,0.0,0.0,90,0.00,,,0.04,,2013-04-11 06:22:00,
2013-04-11 01:32:00,31.0,28.0,28.37,NNW,340,0.0,0.0,90,0.00,,,0.04,,2013-04-11 06:32:00,
2013-04-11 01:42:00,31.0,28.0,28.37,NNW,340,0.0,0.0,90,0.00,,,0.04,,2013-04-11 06:42:00,
2013-04-11 01:52:00,31.0,28.0,28.37,NNW,340,0.0,0.0,89,0.00,,,0.04,,2013-04-11 06:52:00,
2013-04-11 02:02:00,31.0,28.0,28.37,NNW,340,0.0,0.0,89,0.00,,,0.04,,2013-04-11 07:02:00,
2013-04-11 02:12:00,31.0,28.0,28.37,NNW,340,0.0,0.0,89,0.00,,,0.04,,2013-04-11 07:12:00,
2013-04-11 02:22:00,30.0,27.0,28.34,NNW,340,0.0,0.0,88,0.00,,,0.04,,2013-04-11 07:22:00,
2013-04-11 02:32:00,30.0,27.0,28.34,NNW,340,0.0,0.0,88,0.00,,,0.04,,2013-04-11 07:32:00,
2013-04-11 02:43:00,30.0,27.0,28.34,NNW,340,0.0,0.0,88,0.00,,,0.04,,2013-04-11 07:43:00,
2013-04-11 02:52:00,30.0,27.0,28.34,NNW,340,0.0,0.0,88,0.00,,,0.04,,2013-04-11 07:52:00,
2013-04-11 03:02:00,30.0,27.0,28.31,NNW,340,0.0,0.0,87,0.00,,,0.04,,2013-04-11 08:02:00,
2013-04-11 03:12:00,30.0,27.0,28.31,NNW,340,0.0,0.0,87,0.00,,,0.04,,2013-04-11 08:12:00,
2013-04-11 03:22:00,30.0,27.0,28.31,NNW,340,0.0,0.0,87,0.00,,,0.04,,2013-04-11 08:22:00,
2013-04-11 03:32:00,29.0,25.0,28.28,NNW,340,0.0,0.0,85,0.00,,,0.04,,2013-04-11 08:32:00,
2013-04-11 03:42:00,29.0,25.0,28.28,NNW,340,0.0,0.0,85,0.00,,,0.04,,2013-04-11 08:42:00,
2013-04-11 03:52:00,29.0,25.0,28.28,NNW,340,0.0,0.0,85,0.00,,,0.04,,2013-04-11 08:52:00,
2013-04-11 04:02:00,29.0,25.0,28.25,NNW,340,0.0,0.0,85,0.00,,,0.04,,2013-04-11 09:02:00,
2013-04-11 04:12:00,28.0,24.0,28.25,NNW,340,0.0,0.0,86,0.00,,,0.04,,2013-04-11 09:12:00,
2013-04-11 04:22:00,28.0,24.0,28.25,NNW,340,0.0,0.0,86,0.00,,,0.04,,2013-04-11 09:22:00,
2013-04-11 04:33:00,28.0,25.0,28.25,NNW,340,0.0,0.0,87,0.00,,,0.04,,2013-04-11 09:33:00,
2013-04-11 04:43:00,28.0,25.0,28.25,NNW,340,0.0,0.0,87,0.00,,,0.04,,2013-04-11 09:43:00,
2013-04-11 04:53:00,28.0,25.0,28.25,NNW,340,0.0,0.0,87,0.00,,,0.04,,2013-04-11 09:53:00,
2013-04-11 05:02:00,28.0,25.0,28.28,NNW,340,0.0,0.0,87,0.00,,,0.04,,2013-04-11 10:02:00,
2013-04-11 05:12:00,28.0,24.0,28.28,NNW,340,0.0,0.0,86,0.00,,,0.04,,2013-04-11 10:12:00,
2013-04-11 05:23:00,28.0,24.0,28.28,NNW,340,0.0,0.0,86,0.00,,,0.04,,2013-04-11 10:23:00,
2013-04-11 05:32:00,28.0,24.0,28.28,NNW,340,0.0,0.0,86,0.00,,,0.04,,2013-04-11 10:32:00,
2013-04-11 05:42:00,28.0,24.0,28.28,NNW,340,0.0,0.0,86,0.00,,,0.04,,2013-04-11 10:42:00,
2013-04-11 05:52:00,28.0,24.0,28.28,NNW,340,0.0,0.0,85,0.00,,,0.04,,2013-04-11 10:52:00,
2013-04-11 06:02:00,28.0,24.0,28.28,NNW,340,0.0,0.0,85,0.00,,,0.04,,2013-04-11 11:02:00,
2013-04-11 06:12:00,28.0,24.0,28.28,NNW,340,0.0,0.0,84,0.00,,,0.04,,2013-04-11 11:12:00,
2013-04-11 06:22:00,28.0,24.0,28.28,NNW,340,0.0,0.0,84,0.00,,,0.04,,2013-04-11 11:22:00,
2013-04-11 06:32:00,27.0,23.0,28.28,NNW,340,0.0,0.0,83,0.00,,,0.04,,2013-04-11 11:32:00,
2013-04-11 06:42:00,27.0,23.0,28.28,NNW,340,0.0,0.0,83,0.00,,,0.04,,2013-04-11 11:42:00,
2013-04-11 06:52:00,27.0,23.0,28.28,NNW,340,0.0,0.0,83,0.00,,,0.04,,2013-04-11 11:52:00,
2013-04-11 07:02:00,27.0,22.0,28.28,NNW,340,0.0,0.0,82,0.00,,,0.04,,2013-04-11 12:02:00,
2013-04-11 07:12:00,27.0,22.0,28.28,NNW,340,0.0,0.0,81,0.00,,,0.04,,2013-04-11 12:12:00,
2013-04-11 07:22:00,27.0,22.0,28.28,NNW,340,0.0,0.0,81,0.00,,,0.04,,2013-04-11 12:22:00,
2013-04-11 07:32:00,27.0,22.0,28.28,NNW,340,0.0,0.0,81,0.00,,,0.04,,2013-04-11 12:32:00,
2013-04-11 07:42:00,27.0,22.0,28.28,NNW,340,0.0,0.0,81,0.00,,,0.04,,2013-04-11 12:42:00,
2013-04-11 07:52:00,27.0,22.0,28.28,NNW,340,0.0,0.0,81,0.00,,,0.04,,2013-04-11 12:52:00,
2013-04-11 08:02:00,27.0,22.0,28.28,NNW,340,0.0,0.0,81,0.00,,,0.04,,2013-04-11 13:02:00,
2013-04-11 08:12:00,27.0,22.0,28.28,NNW,340,0.0,0.0,80,0.00,,,0.04,,2013-04-11 13:12:00,
2013-04-11 08:23:00,27.0,22.0,28.28,NNW,340,0.0,0.0,80,0.00,,,0.04,,2013-04-11 13:23:00,
2013-04-11 08:32:00,27.0,22.0,28.28,NNW,340,0.0,0.0,80,0.00,,,0.04,,2013-04-11 13:32:00,
2013-04-11 08:43:00,27.0,22.0,28.28,NNW,340,0.0,0.0,80,0.00,,,0.04,,2013-04-11 13:43:00,
2013-04-11 08:54:00,29.0,24.0,28.28,NNW,340,0.0,0.0,80,0.00,,,0.04,,2013-04-11 13:54:00,
2013-04-11 09:02:00,29.0,24.0,28.28,NNW,340,0.0,0.0,80,0.00,,,0.04,,2013-04-11 14:02:00,
2013-04-11 09:12:00,31.0,24.0,28.25,NNW,340,0.0,0.0,75,0.00,,,0.04,,2013-04-11 14:12:00,
2013-04-11 09:22:00,31.0,24.0,28.25,NNW,340,0.0,0.0,75,0.00,,,0.04,,2013-04-11 14:22:00,
2013-04-11 09:32:00,31.0,24.0,28.28,NNW,340,0.0,0.0,75,0.00,,,0.04,,2013-04-11 14:32:00,
2013-04-11 09:42:00,31.0,24.0,28.28,NNW,340,0.0,0.0,75,0.00,,,0.04,,2013-04-11 14:42:00,
2013-04-11 09:52:00,33.0,26.0,28.25,NNW,340,0.0,0.0,75,0.00,,,0.04,,2013-04-11 14:52:00,
2013-04-11 10:02:00,33.0,25.0,28.25,NNW,340,0.0,0.0,73,0.00,,,0.04,,2013-04-11 15:02:00,
2013-04-11 10:12:00,33.0,25.0,28.25,NNW,340,0.0,0.0,72,0.00,,,0.04,,2013-04-11 15:12:00,
2013-04-11 10:22:00,33.0,25.0,28.25,NNW,340,0.0,0.0,72,0.00,,,0.04,,2013-04-11 15:22:00,
2013-04-11 10:32:00,34.0,26.0,28.25,NNW,340,0.0,0.0,72,0.00,,,0.04,,2013-04-11 15:32:00,
2013-04-11 10:43:00,34.0,26.0,28.25,NNW,340,0.0,0.0,72,0.00,,,0.04,,2013-04-11 15:43:00,
2013-04-11 10:53:00,34.0,26.0,28.25,NNW,340,0.0,0.0,72,0.00,,,0.04,,2013-04-11 15:53:00,
2013-04-11 11:02:00,35.0,27.0,28.25,West,278,0.0,0.0,71,0.00,,,0.04,,2013-04-11 16:02:00,
2013-04-11 11:12:00,35.0,27.0,28.25,West,278,0.0,0.0,71,0.00,,,0.04,,2013-04-11 16:12:00,
2013-04-11 11:23:00,35.0,26.0,28.25,West,272,0.0,0.0,68,0.04,,,0.08,,2013-04-11 16:23:00,
2013-04-11 11:32:00,35.0,25.0,28.25,NW,307,0.0,0.0,67,0.04,,,0.08,,2013-04-11 16:32:00,
2013-04-11 11:42:00,35.0,25.0,28.25,NW,307,0.0,0.0,67,0.04,,,0.08,,2013-04-11 16:42:00,
2013-04-11 11:52:00,35.0,25.0,28.25,NW,307,0.0,0.0,67,0.04,,,0.08,,2013-04-11 16:52:00,
2013-04-11 12:02:00,36.0,25.0,28.25,WNW,289,0.0,0.0,64,0.08,,,0.12,,2013-04-11 17:02:00,
2013-04-11 12:12:00,36.0,25.0,28.25,WNW,289,0.0,0.0,64,0.08,,,0.12,,2013-04-11 17:12:00,
2013-04-11 12:23:00,37.0,26.0,28.25,West,275,0.0,0.0,65,0.04,,,0.12,,2013-04-11 17:23:00,
2013-04-11 12:32:00,37.0,26.0,28.25,West,275,0.0,0.0,65,0.04,,,0.12,,2013-04-11 17:32:00,
2013-04-11 12:42:00,37.0,26.0,28.25,West,275,0.0,0.0,65,0.04,,,0.12,,2013-04-11 17:42:00,
2013-04-11 12:52:00,38.0,26.0,28.25,West,259,3.0,7.0,61,0.00,,,0.12,,2013-04-11 17:52:00,
2013-04-11 13:03:00,38.0,25.0,28.25,WNW,300,3.0,3.0,58,0.00,,,0.12,,2013-04-11 18:03:00,
2013-04-11 13:13:00,38.0,25.0,28.25,WNW,300,3.0,3.0,58,0.00,,,0.12,,2013-04-11 18:13:00,
2013-04-11 13:22:00,39.0,24.0,28.22,West,278,3.0,5.0,55,0.00,,,0.12,,2013-04-11 18:22:00,
2013-04-11 13:32:00,40.0,26.0,28.22,WSW,244,5.0,8.0,56,0.00,,,0.12,,2013-04-11 18:32:00,
2013-04-11 13:42:00,40.0,26.0,28.22,WSW,244,5.0,8.0,56,0.00,,,0.12,,2013-04-11 18:42:00,
2013-04-11 13:53:00,41.0,25.0,28.22,WSW,247,0.0,7.0,53,0.00,,,0.12,,2013-04-11 18:53:00,
2013-04-11 14:03:00,41.0,26.0,28.22,WNW,302,3.0,7.0,54,0.00,,,0.12,,2013-04-11 19:03:00,
2013-04-11 14:13:00,41.0,26.0,28.22,WNW,302,3.0,7.0,54,0.00,,,0.12,,2013-04-11 19:13:00,
2013-04-11 14:22:00,42.0,26.0,28.22,NW,319,3.0,5.0,52,0.00,,,0.12,,2013-04-11 19:22:00,
2013-04-11 14:32:00,42.0,23.0,28.22,WNW,298,4.0,8.0,47,0.00,,,0.12,,2013-04-11 19:32:00,
2013-04-11 14:42:00,42.0,23.0,28.22,WNW,298,4.0,8.0,47,0.00,,,0.12,,2013-04-11 19:42:00,
2013-04-11 14:53:00,43.0,22.0,28.22,SSW,209,5.0,7.0,43,0.00,,,0.12,,2013-04-11 19:53:00,
2013-04-11 15:02:00,43.0,22.0,28.22,SSW,209,5.0,7.0,43,0.00,,,0.12,,2013-04-11 20:02:00,
2013-04-11 15:13:00,45.0,23.0,28.20,West,262,8.0,10.0,42,0.00,,,0.12,,2013-04-11 20:13:00,
2013-04-11 15:22:00,45.0,23.0,28.20,West,262,8.0,10.0,42,0.00,,,0.12,,2013-04-11 20:22:00,
2013-04-11 15:33:00,46.0,24.0,28.20,WNW,298,3.0,7.0,41,0.00,,,0.12,,2013-04-11 20:33:00,
2013-04-11 15:43:00,46.0,24.0,28.20,WNW,298,3.0,7.0,41,0.00,,,0.12,,2013-04-11 20:43:00,
2013-04-11 15:52:00,46.0,25.0,28.20,WSW,239,5.0,7.0,43,0.00,,,0.12,,2013-04-11 20:52:00,
2013-04-11 16:02:00,46.0,25.0,28.20,WSW,239,5.0,7.0,43,0.00,,,0.12,,2013-04-11 21:02:00,
2013-04-11 16:12:00,46.0,25.0,28.20,WSW,239,5.0,7.0,43,0.00,,,0.12,,2013-04-11 21:12:00,
2013-04-11 16:22:00,46.0,24.0,28.20,NW,323,4.0,5.0,42,0.00,,,0.12,,2013-04-11 21:22:00,
2013-04-11 16:33:00,46.0,24.0,28.20,NW,323,4.0,5.0,42,0.00,,,0.12,,2013-04-11 21:33:00,
2013-04-11 16:43:00,46.0,24.0,28.20,NW,323,4.0,5.0,42,0.00,,,0.12,,2013-04-11 21:43:00,
2013-04-11 16:54:00,46.0,24.0,28.20,NW,323,4.0,5.0,42,0.00,,,0.12,,2013-04-11 21:54:00,
2013-04-11 17:03:00,47.0,25.0,28.20,WNW,285,3.0,5.0,41,0.00,,,0.12,,2013-04-11 22:03:00,
2013-04-11 17:13:00,47.0,25.0,28.20,WNW,285,3.0,5.0,41,0.00,,,0.12,,2013-04-11 22:13:00,
2013-04-11 17:23:00,47.0,25.0,28.20,North,353,2.0,5.0,41,0.00,,,0.12,,2013-04-11 22:23:00,
2013-04-11 17:33:00,47.0,25.0,28.20,North,353,2.0,5.0,41,0.00,,,0.12,,2013-04-11 22:33:00,
2013-04-11 17:44:00,47.0,25.0,28.20,North,353,2.0,5.0,41,0.00,,,0.12,,2013-04-11 22:44:00,
2013-04-11 17:53:00,47.0,24.0,28.20,NW,305,3.0,5.0,40,0.00,,,0.12,,2013-04-11 22:53:00,
2013-04-11 18:03:00,46.0,23.0,28.20,NW,307,5.0,8.0,40,0.00,,,0.12,,2013-04-11 23:03:00,
2013-04-11 18:12:00,46.0,23.0,28.20,NW,307,5.0,8.0,40,0.00,,,0.12,,2013-04-11 23:12:00,
2013-04-11 18:23:00,46.0,24.0,28.20,NW,320,5.0,7.0,41,0.00,,,0.08,,2013-04-11 23:23:00,
2013-04-11 18:32:00,46.0,24.0,28.20,NW,320,5.0,7.0,41,0.00,,,0.08,,2013-04-11 23:32:00,
2013-04-11 18:42:00,46.0,24.0,28.20,NW,320,5.0,7.0,41,0.00,,,0.08,,2013-04-11 23:42:00,
2013-04-11 18:53:00,45.0,24.0,28.20,NNW,330,4.0,5.0,43,0.00,,,0.08,,2013-04-11 23:53:00,
2013-04-11 19:02:00,45.0,24.0,28.20,NNW,330,4.0,5.0,43,0.00,,,0.08,,2013-04-12 00:02:00,
2013-04-11 19:12:00,45.0,24.0,28.20,NNW,330,4.0,5.0,43,0.00,,,0.08,,2013-04-12 00:12:00,
2013-04-11 19:22:00,43.0,23.0,28.20,NW,326,3.0,5.0,44,0.00,,,0.08,,2013-04-12 00:22:00,
2013-04-11 19:32:00,43.0,23.0,28.20,NW,325,5.0,7.0,45,0.00,,,0.08,,2013-04-12 00:32:00,
2013-04-11 19:43:00,43.0,23.0,28.20,NW,325,5.0,7.0,45,0.00,,,0.08,,2013-04-12 00:43:00,
2013-04-11 19:53:00,42.0,23.0,28.22,WNW,295,3.0,5.0,46,0.00,,,0.08,,2013-04-12 00:53:00,
2013-04-11 20:02:00,41.0,23.0,28.22,NW,314,5.0,5.0,49,0.00,,,0.08,,2013-04-12 01:02:00,
2013-04-11 20:12:00,41.0,23.0,28.22,NW,314,5.0,5.0,49,0.00,,,0.08,,2013-04-12 01:12:00,
2013-04-11 20:22:00,40.0,22.0,28.22,NW,315,4.0,5.0,49,0.00,,,0.08,,2013-04-12 01:22:00,
2013-04-11 20:32:00,40.0,22.0,28.22,NW,315,4.0,5.0,49,0.00,,,0.08,,2013-04-12 01:32:00,
2013-04-11 20:42:00,40.0,22.0,28.22,NW,315,4.0,5.0,49,0.00,,,0.08,,2013-04-12 01:42:00,
2013-04-11 20:52:00,38.0,22.0,28.22,NW,306,4.0,5.0,51,0.00,,,0.08,,2013-04-12 01:52:00,
2013-04-11 21:03:00,38.0,22.0,28.22,NNW,341,2.0,4.0,53,0.00,,,0.08,,2013-04-12 02:03:00,
2013-04-11 21:12:00,38.0,22.0,28.22,NNW,341,2.0,4.0,53,0.00,,,0.08,,2013-04-12 02:12:00,
2013-04-11 21:22:00,38.0,22.0,28.22,NNW,341,2.0,4.0,53,0.00,,,0.08,,2013-04-12 02:22:00,
2013-04-11 21:32:00,36.0,21.0,28.25,WNW,303,0.0,0.0,55,0.00,,,0.08,,2013-04-12 02:32:00,
2013-04-11 21:42:00,36.0,21.0,28.25,WNW,303,0.0,0.0,55,0.00,,,0.08,,2013-04-12 02:42:00,
2013-04-11 21:52:00,35.0,21.0,28.25,WNW,303,0.0,0.0,57,0.00,,,0.08,,2013-04-12 02:52:00,
2013-04-11 22:02:00,35.0,22.0,28.25,NW,315,2.0,3.0,59,0.00,,,0.08,,2013-04-12 03:02:00,
2013-04-11 22:12:00,35.0,22.0,28.25,NW,315,2.0,3.0,59,0.00,,,0.08,,2013-04-12 03:12:00,
2013-04-11 22:22:00,35.0,22.0,28.25,NW,315,0.0,0.0,59,0.00,,,0.08,,2013-04-12 03:22:00,
2013-04-11 22:33:00,35.0,23.0,28.28,WSW,258,0.0,0.0,60,0.00,,,0.08,,2013-04-12 03:33:00,
2013-04-11 22:43:00,35.0,23.0,28.28,WSW,258,0.0,0.0,60,0.00,,,0.08,,2013-04-12 03:43:00,
2013-04-11 22:52:00,35.0,23.0,28.28,WSW,258,0.0,0.0,60,0.00,,,0.08,,2013-04-12 03:52:00,
2013-04-11 23:03:00,34.0,22.0,28.28,WSW,258,0.0,0.0,60,0.00,,,0.08,,2013-04-12 04:03:00,
2013-04-11 23:13:00,34.0,22.0,28.28,WSW,258,0.0,0.0,60,0.00,,,0.08,,2013-04-12 04:13:00,
2013-04-11 23:22:00,33.0,21.0,28.28,WSW,258,0.0,0.0,61,0.00,,,0.08,,2013-04-12 04:22:00,
2013-04-11 23:33:00,33.0,21.0,28.28,WSW,258,0.0,0.0,61,0.00,,,0.08,,2013-04-12 04:33:00,
2013-04-11 23:43:00,33.0,21.0,28.28,WSW,258,0.0,0.0,61,0.00,,,0.08,,2013-04-12 04:43:00,
2013-04-11 23:53:00,33.0,22.0,28.28,WSW,256,0.0,2.0,63,0.00,,,0.08,,2013-04-12 04:53:00,